Weather in Nara

Russia / Kaluga Oblast     55°12′40″N   36°52′59″E
temp.,
°C
wind,
m/s
gust,
m/s
humid.,
%
clouds,
%
prec.,
mm/h
press.,
hPa
HPBL,
m
27 january, thu
thu2700:00−8n1192100 0.1 101712
03:00−8wsw1292100 0.1 101763
06:00−10wsw2497100 0.1 1017120
09:00−17ssw23100100 0.1 101757
12:00−11ssw3694100 0.0 1016243
15:00−9s3893100 0.1 1015394
18:00−13sse399874 0.0 1014174
21:00−14s4129665 0.0 1012262
28 january, fri
fri2800:00−13s4129483 0.0 1011319
03:00−12s41295100 0.1 1009361
06:00−11sse41295100 0.1 1007340
09:00−10sse51395100 0.4 1006407
12:00−7sse51394100 1.0 1004479
15:00−5sse41094100 1.6 1003489
18:00−5sse41095100 0.6 1003435
21:00−5sse3996100 1.3 1002351
29 january, sat
sat2900:00−4sse3797100 0.6 1002259
03:00−5sse2697100 0.8 1002165
06:00−5sse2598100 0.6 1002127
09:00−5ssw2499100 0.7 100394
12:00−2sw2596100 0.2 1003288
15:00−1wsw2597100 1.4 1003373
18:00−4nw389686 0.3 1005290
21:00−5wnw369495 0.4 1006397
30 january, sun
sun3000:00−12w259989 0.1 100662
03:00−16sw1110099 0.1 100513
06:00−12s31098100 0.1 1000218
09:00−7s51492100 0.1 996552
12:00−5s61594100 1.3 991905
15:00−4s61395100 3.4 988819
18:00−4s51295100 0.9 987655
21:00−3s41297100 2.3 985609
31 january, mon
mon3100:00−2s399694 0.6 986346
03:00−3s3895100 1.3 986411
06:00−4ese3797100 0.1 985193
09:00−3ese31097100 1.4 985520
12:00−1e3697100 1.6 985485
15:00−1nne1296100 2.5 985274
18:00−4nw269871 0.4 987118
21:00−5wnw399679 0.5 989278